Jefferson, NC

8:05 PM EST on December 05, 2019 (GMT -0500)
Ashe County

Weather History for KGEV - October, 2019

Change the Weather History Date:

Tuesday, October 8, 2019

  Actual Average Record
Temperature  
Mean Temperature 55 °F -  
Max Temperature 58 °F 63 °F 74 °F (1993)
Min Temperature 52 °F 41 °F 22 °F (1991)
Degree Days  
Heating Degree Days 10    
Growing Degree Days 5 (Base 50)    
Moisture  
Dew Point 55 °F    
Average Humidity 100    
Maximum Humidity 100    
Minimum Humidity 98    
Precipitation  
Precipitation 0.94 in - - ()
Sea Level Pressure  
Sea Level Pressure 30.17 in    
Wind  
Wind Speed 2 mph ()    
Max Wind Speed 6 mph    
Max Gust Speed -    
Visibility 4.2 miles    
Events Fog , Rain    
Averages and records for this station are not official NWS values.
T = Trace of Precipitation, MM = Missing Value Source: Averaged Metar Reports

Daily Weather History Graph

Daily Weather History Graph

Search for Another Location

Airport or City:

Astronomy

Oct. 08, 2019 Rise Set
Actual Time 7:26 AM EDT 6:59 PM EDT
Civil Twilight 7:00 AM EDT 7:25 PM EDT
Nautical Twilight 6:30 AM EDT 7:54 PM EDT
Astronomical Twilight 6:00 AM EDT 8:24 PM EDT
Moon 4:47 PM EDT (10/8) 2:25 AM EDT (10/8)
Length of Visible Light 12h 24m
Length of Day
11h 32m
Waxing Gibbous, 77% of the Moon is Illuminated
Oct 8
Waxing Gibbous
Oct 13
Full
Oct 21
Last Quarter
Oct 27
New
Nov 4
First Quarter

Hourly Weather History & Observations

Time (EDT) Temp. Dew Point Humidity Pressure Visibility Wind Dir Wind Speed Gust Speed Precip Events Conditions
12:15 AM 58.1 °F 57.6 °F 98% 30.17 in 10.0 mi Calm Calm - N/A   Overcast
12:35 AM 57.7 °F 57.4 °F 99% 30.16 in 10.0 mi Calm Calm - N/A   Overcast
12:55 AM 57.4 °F 57.2 °F 99% 30.15 in 10.0 mi Calm Calm - N/A   Overcast
1:15 AM 57.2 °F 57.2 °F 100% 30.14 in 10.0 mi ENE 3.5 mph - N/A   Overcast
1:35 AM 56.8 °F 56.7 °F 99% 30.14 in 10.0 mi Calm Calm - N/A   Overcast
1:55 AM 57.0 °F 57.0 °F 100% 30.14 in 4.0 mi Calm Calm - N/A   Overcast
2:15 AM 57.2 °F 57.2 °F 100% 30.14 in 0.5 mi NW 3.5 mph - N/A Fog Fog
2:35 AM 57.2 °F 57.2 °F 100% 30.14 in 0.5 mi NW 4.6 mph - N/A Fog Fog
2:55 AM 56.7 °F 56.7 °F 100% 30.13 in 0.2 mi NNE 3.5 mph - N/A   Heavy Drizzle
3:15 AM 56.8 °F 56.8 °F 100% 30.13 in 0.2 mi NNW 3.5 mph - N/A   Light Drizzle
3:35 AM 56.7 °F 56.7 °F 100% 30.13 in 0.2 mi NNW 3.5 mph - N/A Fog Fog
3:55 AM 56.7 °F 56.7 °F 100% 30.13 in 0.2 mi Calm Calm - N/A Fog Fog
4:15 AM 56.5 °F 56.5 °F 100% 30.13 in 0.2 mi North 3.5 mph - N/A Fog Fog
4:35 AM 56.3 °F 56.3 °F 100% 30.13 in 0.2 mi NNW 3.5 mph - N/A Fog Fog
4:55 AM 56.3 °F 56.3 °F 100% 30.13 in 0.2 mi Calm Calm - N/A Fog Fog
5:15 AM 56.3 °F 56.3 °F 100% 30.13 in 0.8 mi Calm Calm - N/A   Overcast
5:35 AM 56.3 °F 56.3 °F 100% 30.14 in 1.5 mi Calm Calm - N/A Rain Rain
5:55 AM 56.3 °F 56.3 °F 100% 30.14 in 1.2 mi Calm Calm - N/A   Light Drizzle
6:15 AM 56.3 °F 56.3 °F 100% 30.14 in 1.0 mi Calm Calm - 0.01 in   Drizzle
6:35 AM 56.3 °F 56.3 °F 100% 30.14 in 0.5 mi NNW 3.5 mph - 0.01 in Fog Fog
6:55 AM 55.9 °F 55.9 °F 100% 30.14 in 1.2 mi NNW 3.5 mph - 0.01 in Rain Rain
7:15 AM 55.9 °F 55.9 °F 100% 30.15 in 1.0 mi NE 3.5 mph - N/A   Drizzle
7:35 AM 56.3 °F 56.3 °F 100% 30.15 in 2.0 mi Calm Calm - 0.01 in   Drizzle
7:55 AM 56.3 °F 56.3 °F 100% 30.15 in 1.0 mi Calm Calm - 0.01 in   Drizzle
8:15 AM 56.3 °F 56.3 °F 100% 30.15 in 1.5 mi Calm Calm - 0.01 in Rain Light Rain
8:35 AM 56.3 °F 56.3 °F 100% 30.16 in 4.0 mi ENE 3.5 mph - 0.03 in Rain Rain
8:55 AM 55.8 °F 55.8 °F 100% 30.17 in 5.0 mi NE 4.6 mph - 0.08 in Rain Rain
9:15 AM 55.8 °F 55.8 °F 100% 30.17 in 5.0 mi NNE 3.5 mph - 0.03 in Rain Heavy Rain
9:35 AM 55.8 °F 55.8 °F 100% 30.17 in 2.0 mi NE 4.6 mph - 0.11 in Rain Heavy Rain
9:55 AM 55.6 °F 55.6 °F 100% 30.18 in 2.0 mi NNE 4.6 mph - 0.23 in Rain Heavy Rain
10:15 AM 55.6 °F 55.6 °F 100% 30.18 in 1.5 mi NNE 3.5 mph - 0.18 in Rain Heavy Rain
10:35 AM 55.6 °F 55.6 °F 100% 30.19 in 4.0 mi NE 3.5 mph - 0.25 in Rain Rain
10:55 AM 55.4 °F 55.4 °F 100% 30.19 in 4.0 mi Calm Calm - 0.30 in Rain Rain
11:15 AM 54.9 °F 54.9 °F 100% 30.20 in 4.0 mi NNE 3.5 mph - 0.03 in Rain Rain
11:35 AM 54.7 °F 54.7 °F 100% 30.19 in 2.5 mi NNE 5.8 mph - 0.10 in Rain Heavy Rain
11:55 AM 54.7 °F 54.7 °F 100% 30.19 in 5.0 mi NE 5.8 mph - 0.13 in Rain Light Rain
12:15 PM 54.7 °F 54.7 °F 100% 30.20 in 3.0 mi NE 5.8 mph - 0.02 in Rain Light Rain
12:35 PM 54.9 °F 54.9 °F 100% 30.19 in 3.0 mi ENE 4.6 mph - 0.04 in   Light Drizzle
12:55 PM 54.9 °F 54.9 °F 100% 30.20 in 4.0 mi NNE 3.5 mph - 0.04 in   Overcast
1:15 PM 54.7 °F 54.7 °F 100% 30.19 in 7.0 mi NE 4.6 mph - N/A   Light Drizzle
1:35 PM 54.1 °F 54.1 °F 100% 30.18 in 5.0 mi NE 4.6 mph - N/A   Light Drizzle
1:55 PM 54.1 °F 54.1 °F 100% 30.18 in 7.0 mi NNE 4.6 mph - N/A   Light Drizzle
2:15 PM 54.3 °F 54.3 °F 100% 30.17 in 10.0 mi NE 4.6 mph - N/A   Light Drizzle
2:35 PM 54.3 °F 54.3 °F 100% 30.16 in 10.0 mi North 3.5 mph - N/A   Overcast
2:55 PM 54.7 °F 54.7 °F 100% 30.16 in 10.0 mi Calm Calm - N/A Rain Rain
3:15 PM 54.3 °F 54.3 °F 100% 30.16 in 7.0 mi North 3.5 mph - N/A   Drizzle
3:35 PM 54.3 °F 54.3 °F 100% 30.16 in 7.0 mi NE 4.6 mph - N/A Rain Light Rain
3:55 PM 54.3 °F 54.3 °F 100% 30.16 in 4.0 mi NNE 5.8 mph - 0.02 in Rain Light Rain
4:15 PM 53.8 °F 53.8 °F 100% 30.16 in 5.0 mi NE 3.5 mph - 0.01 in Rain Rain
4:35 PM 54.0 °F 54.0 °F 100% 30.16 in 5.0 mi North 3.5 mph - 0.01 in Rain Light Rain
4:55 PM 53.8 °F 53.8 °F 100% 30.16 in 7.0 mi North 3.5 mph - 0.01 in Rain Rain
5:15 PM 53.6 °F 53.6 °F 100% 30.16 in 7.0 mi NNE 4.6 mph - 0.01 in Rain Rain
5:35 PM 53.2 °F 53.2 °F 100% 30.17 in 7.0 mi NNE 3.5 mph - 0.01 in Rain Light Rain
5:55 PM 53.1 °F 53.1 °F 100% 30.17 in 5.0 mi Calm Calm - 0.03 in Rain Rain
6:15 PM 53.4 °F 53.4 °F 100% 30.18 in 4.0 mi Calm Calm - 0.03 in Rain Rain
6:35 PM 53.2 °F 53.2 °F 100% 30.17 in 7.0 mi Calm Calm - 0.05 in Rain Rain
6:55 PM 52.9 °F 52.9 °F 100% 30.17 in 7.0 mi NNE 3.5 mph - 0.07 in Rain Light Rain
7:15 PM 52.7 °F 52.7 °F 100% 30.18 in 3.0 mi NE 3.5 mph - 0.01 in   Drizzle
7:35 PM 52.7 °F 52.7 °F 100% 30.18 in 10.0 mi Calm Calm - 0.01 in Rain Light Rain
7:55 PM 52.7 °F 52.7 °F 100% 30.18 in 10.0 mi NE 3.5 mph - 0.01 in   Overcast
8:15 PM 52.5 °F 52.5 °F 100% 30.18 in 10.0 mi Calm Calm - N/A   Overcast
8:35 PM 52.3 °F 52.3 °F 100% 30.19 in 10.0 mi Calm Calm - N/A   Overcast
8:55 PM 52.5 °F 52.5 °F 100% 30.19 in 10.0 mi NNE 3.5 mph - N/A   Overcast
9:15 PM 52.3 °F 52.3 °F 100% 30.20 in 2.5 mi Calm Calm - N/A   Overcast
9:35 PM 52.3 °F 52.3 °F 100% 30.20 in 1.2 mi Calm Calm - N/A   Overcast
9:55 PM 52.3 °F 52.3 °F 100% 30.20 in 0.8 mi Calm Calm - N/A   Overcast
10:15 PM 52.2 °F 52.2 °F 100% 30.20 in 0.8 mi Calm Calm - N/A   Overcast
10:35 PM 52.3 °F 52.3 °F 100% 30.20 in 1.2 mi Calm Calm - N/A   Overcast
10:55 PM 52.5 °F 52.5 °F 100% 30.20 in 0.8 mi Calm Calm - N/A   Overcast
11:15 PM 52.3 °F 52.3 °F 100% 30.21 in 0.8 mi Calm Calm - N/A   Overcast
11:35 PM 52.3 °F 52.3 °F 100% 30.20 in 0.5 mi NE 3.5 mph - N/A Fog Fog
11:55 PM 52.2 °F 52.2 °F 100% 30.20 in 0.8 mi ENE 3.5 mph - N/A   Overcast